Location: Fours
(44.3167°N, 6.7000°E)
Time: 08:56:05
(UTC+00:00)

SAR-Lupe-4 - Pass Details

Date: 30 November 2020
Orbit: 481 x 484 km, 98.2° (Epoch: 09 January)

Event Time Altitude Azimuth Distance (km) Brightness Sun altitude
Exits shadow 17:54:17 50° 6° (N) 629 3.9 -20.6°
Maximum altitude 17:55:09 83° 286° (WNW) 494 3.5 -20.8°
Drops below altitude 10° 17:58:44 10° 197° (SSW) 1,662 6.6 -21.4°
Sets 18:00:46 0° 197° (SSW) 2,537 7.6 -21.8°
